| time (UTC) | temp F | wind direction | speed MPH | gust MPH | rain 1hr in | rain 24hr in | rain mn in | humidity % | barometer mb |
| 20260502220924 | 54 | 14 | 2.0 | 6.0 | 0.02 | 0.04 | 0.04 | 76 | 1012.0 |
| 20260502220003 | 55 | 354 | 1.0 | 4.0 | 0.02 | 0.03 | 0.03 | 76 | 1012.1 |
| 20260502215403 | 55 | 347 | 2.0 | 4.0 | 0.02 | 0.03 | 0.03 | 76 | 1012.1 |
| 20260502214503 | 55 | 343 | 1.0 | 4.0 | 0.02 | 0.03 | 0.03 | 77 | 1012.1 |
| 20260502213603 | 55 | 336 | 2.0 | 5.0 | 0.02 | 0.02 | 0.02 | 77 | 1012.2 |
| 20260502212703 | 55 | 333 | 3.0 | 5.0 | 0.02 | 0.02 | 0.02 | 78 | 1012.1 |
| 20260502211803 | 55 | 336 | 2.0 | 4.0 | 0.01 | 0.02 | 0.02 | 78 | 1012.2 |
| 20260502210903 | 55 | 333 | 3.0 | 4.0 | 0.01 | 0.02 | 0.02 | 78 | 1012.1 |
| 20260502210003 | 56 | 319 | 3.0 | 6.0 | 0.01 | 0.02 | 0.02 | 78 | 1012.2 |
| 20260502205403 | 56 | 310 | 3.0 | 8.0 | 0.01 | 0.02 | 0.02 | 78 | 1012.3 |
| 20260502204524 | 56 | 313 | 3.0 | 8.0 | 0.00 | 0.01 | 0.01 | 78 | 1012.3 |
| 20260502203603 | 56 | 311 | 3.0 | 5.0 | 0.00 | 0.01 | 0.01 | 78 | 1012.3 |
| 20260502202703 | 56 | 318 | 4.0 | 8.0 | 0.00 | 0.01 | 0.01 | 78 | 1012.3 |
| 20260502201803 | 56 | 320 | 3.0 | 5.0 | 0.00 | 0.01 | 0.01 | 78 | 1012.5 |
| 20260502200924 | 56 | 333 | 4.0 | 9.0 | 0.00 | 0.01 | 0.01 | 77 | 1012.4 |
| 20260502200024 | 56 | 330 | 5.0 | 9.0 | 0.00 | 0.01 | 0.01 | 78 | 1012.4 |
| 20260502195403 | 56 | 332 | 4.0 | 9.0 | 0.00 | 0.01 | 0.01 | 78 | 1012.4 |
| 20260502194503 | 56 | 337 | 4.0 | 8.0 | 0.00 | 0.01 | 0.01 | 78 | 1012.4 |
| 20260502193603 | 56 | 324 | 4.0 | 7.0 | 0.00 | 0.01 | 0.01 | 78 | 1012.3 |
| 20260502192703 | 56 | 314 | 4.0 | 7.0 | 0.00 | 0.01 | 0.01 | 78 | 1012.2 |
| 20260502191824 | 57 | 324 | 4.0 | 8.0 | 0.00 | 0.01 | 0.01 | 76 | 1012.1 |
| 20260502190924 | 57 | 331 | 4.0 | 8.0 | 0.00 | 0.01 | 0.01 | 78 | 1012.3 |
| 20260502190004 | 57 | 319 | 5.0 | 9.0 | 0.00 | 0.01 | 0.01 | 78 | 1012.2 |
| 20260502185424 | 57 | 323 | 5.0 | 9.0 | 0.00 | 0.01 | 0.01 | 78 | 1012.2 |
| 20260502184503 | 57 | 324 | 5.0 | 9.0 | 0.00 | 0.01 | 0.01 | 78 | 1012.5 |
| 20260502183603 | 57 | 323 | 5.0 | 10.0 | 0.00 | 0.01 | 0.01 | 78 | 1012.4 |
| 20260502182724 | 57 | 336 | 4.0 | 8.0 | 0.00 | 0.01 | 0.01 | 78 | 1012.5 |
| 20260502181803 | 58 | 342 | 4.0 | 8.0 | 0.00 | 0.01 | 0.01 | 78 | 1012.6 |
| 20260502180903 | 59 | 346 | 4.0 | 8.0 | 0.00 | 0.02 | 0.01 | 77 | 1012.7 |
| 20260502163603 | 60 | 5 | 4.0 | 8.0 | 0.00 | 0.06 | 0.01 | 77 | 1013.2 |
| 20260502162703 | 60 | 3 | 3.0 | 8.0 | 0.00 | 0.06 | 0.01 | 77 | 1013.3 |
| 20260502161803 | 61 | 324 | 3.0 | 8.0 | 0.00 | 0.06 | 0.01 | 77 | 1013.3 |
| 20260502160903 | 60 | 294 | 4.0 | 8.0 | 0.00 | 0.06 | 0.01 | 77 | 1013.4 |
| 20260502151803 | 62 | 261 | 4.0 | 9.0 | 0.00 | 0.06 | 0.01 | 75 | 1014.0 |
| 20260502150903 | 62 | 274 | 4.0 | 8.0 | 0.00 | 0.06 | 0.01 | 76 | 1014.2 |
| 20260502123603 | 60 | 221 | 4.0 | 7.0 | 0.00 | 0.08 | 0.01 | 74 | 1015.5 |
| 20260502122724 | 61 | 214 | 4.0 | 8.0 | 0.00 | 0.08 | 0.01 | 74 | 1015.7 |
| 20260502121824 | 62 | 214 | 4.0 | 7.0 | 0.00 | 0.08 | 0.01 | 74 | 1015.9 |
| 20260502120903 | 62 | 204 | 3.0 | 6.0 | 0.00 | 0.08 | 0.01 | 73 | 1016.0 |
| 20260502115403 | 61 | 200 | 3.0 | 7.0 | 0.00 | 0.08 | 0.01 | 73 | 1016.0 |
| 20260502114503 | 61 | 186 | 3.0 | 7.0 | 0.00 | 0.08 | 0.01 | 73 | 1016.2 |
| 20260502113603 | 62 | 165 | 3.0 | 7.0 | 0.00 | 0.08 | 0.01 | 72 | 1016.1 |
| 20260502112703 | 62 | 167 | 3.0 | 9.0 | 0.00 | 0.08 | 0.01 | 72 | 1016.1 |
| 20260502111803 | 62 | 134 | 4.0 | 8.0 | 0.00 | 0.08 | 0.01 | 72 | 1016.1 |
| 20260502110924 | 61 | 156 | 3.0 | 8.0 | 0.00 | 0.08 | 0.01 | 72 | 1016.1 |
| 20260502110003 | 61 | 177 | 4.0 | 9.0 | 0.00 | 0.08 | 0.01 | 72 | 1016.0 |
| 20260502105403 | 61 | 171 | 5.0 | 11.0 | 0.00 | 0.08 | 0.01 | 71 | 1016.1 |
| 20260502104503 | 62 | 180 | 3.0 | 11.0 | 0.00 | 0.08 | 0.01 | 70 | 1016.2 |
| 20260502103603 | 61 | 177 | 4.0 | 11.0 | 0.00 | 0.08 | 0.01 | 70 | 1016.2 |
| 20260502102703 | 61 | 175 | 4.0 | 9.0 | 0.00 | 0.08 | 0.01 | 71 | 1016.4 |
| 20260502101803 | 60 | 141 | 4.0 | 9.0 | 0.00 | 0.08 | 0.01 | 71 | 1016.5 |
| 20260502100903 | 60 | 165 | 4.0 | 9.0 | 0.00 | 0.08 | 0.01 | 70 | 1016.3 |
| 20260502090903 | 56 | 158 | 4.0 | 10.0 | 0.00 | 0.08 | 0.01 | 76 | 1016.7 |
| 20260502070903 | 53 | 159 | 3.0 | 7.0 | 0.00 | 0.08 | 0.01 | 78 | 1016.6 |
| 20260502070003 | 52 | 164 | 4.0 | 7.0 | 0.00 | 0.08 | 0.01 | 79 | 1016.7 |
| 20260502065403 | 52 | 150 | 4.0 | 9.0 | 0.00 | 0.08 | 0.01 | 78 | 1016.7 |
| 20260502064524 | 52 | 161 | 3.0 | 9.0 | 0.00 | 0.08 | 0.01 | 78 | 1016.7 |
| 20260502063603 | 52 | 187 | 3.0 | 6.0 | 0.00 | 0.08 | 0.01 | 78 | 1016.6 |
| 20260502062724 | 52 | 177 | 4.0 | 7.0 | 0.00 | 0.08 | 0.01 | 78 | 1016.6 |
| 20260502061803 | 52 | 178 | 3.0 | 7.0 | 0.00 | 0.08 | 0.01 | 78 | 1016.5 |
| 20260502060903 | 52 | 170 | 3.0 | 7.0 | 0.00 | 0.08 | 0.01 | 78 | 1016.6 |
| 20260502060024 | 52 | 186 | 3.0 | 7.0 | 0.00 | 0.08 | 0.01 | 78 | 1016.6 |
| 20260502055403 | 51 | 193 | 4.0 | 7.0 | 0.00 | 0.08 | 0.01 | 79 | 1016.5 |
| 20260502054503 | 51 | 191 | 3.0 | 7.0 | 0.00 | 0.08 | 0.01 | 79 | 1016.4 |
| 20260502053624 | 51 | 192 | 3.0 | 9.0 | 0.00 | 0.08 | 0.01 | 78 | 1016.5 |
| 20260502052703 | 51 | 197 | 4.0 | 9.0 | 0.00 | 0.08 | 0.01 | 78 | 1016.5 |
| 20260502051803 | 51 | 198 | 3.0 | 9.0 | 0.00 | 0.08 | 0.01 | 78 | 1016.5 |
| 20260502050903 | 51 | 186 | 3.0 | 8.0 | 0.00 | 0.08 | 0.01 | 78 | 1016.5 |
| 20260502050003 | 51 | 193 | 5.0 | 9.0 | 0.00 | 0.08 | 0.01 | 78 | 1016.4 |
| 20260502045424 | 51 | 202 | 5.0 | 9.0 | 0.00 | 0.08 | 0.01 | 78 | 1016.4 |
| 20260502044504 | 51 | 195 | 4.0 | 9.0 | 0.00 | 0.08 | 0.01 | 78 | 1016.5 |
| 20260502043603 | 51 | 198 | 5.0 | 11.0 | 0.00 | 0.08 | 0.01 | 78 | 1016.4 |
| 20260502042703 | 51 | 192 | 4.0 | 10.0 | 0.00 | 0.08 | 0.01 | 78 | 1016.4 |
| 20260502041803 | 51 | 190 | 4.0 | 8.0 | 0.00 | 0.08 | 0.01 | 78 | 1016.4 |
| 20260502040903 | 51 | 189 | 5.0 | 9.0 | 0.00 | 0.08 | 0.01 | 78 | 1016.6 |
| 20260502040024 | 51 | 198 | 4.0 | 10.0 | 0.00 | 0.08 | 0.01 | 78 | 1016.7 |
| 20260502035403 | 51 | 191 | 5.0 | 11.0 | 0.00 | 0.08 | 0.01 | 78 | 1016.7 |
| 20260502034503 | 51 | 182 | 5.0 | 13.0 | 0.00 | 0.08 | 0.01 | 78 | 1016.7 |
| 20260502033603 | 50 | 178 | 5.0 | 13.0 | 0.00 | 0.08 | 0.01 | 78 | 1016.9 |
| 20260502032724 | 50 | 185 | 7.0 | 13.0 | 0.00 | 0.08 | 0.01 | 78 | 1016.9 |
| 20260502031803 | 50 | 186 | 7.0 | 12.0 | 0.00 | 0.08 | 0.01 | 78 | 1016.9 |
| 20260502030903 | 50 | 177 | 6.0 | 12.0 | 0.00 | 0.08 | 0.01 | 78 | 1016.9 |
| 20260502030003 | 50 | 174 | 3.0 | 7.0 | 0.00 | 0.08 | 0.01 | 78 | 1016.9 |
| 20260502025403 | 49 | 166 | 2.0 | 6.0 | 0.00 | 0.08 | 0.01 | 78 | 1017.0 |
| 20260502024503 | 49 | 193 | 1.0 | 5.0 | 0.00 | 0.08 | 0.01 | 78 | 1016.9 |
| 20260502023624 | 49 | 213 | 1.0 | 2.0 | 0.00 | 0.08 | 0.01 | 78 | 1017.0 |
| 20260502022703 | 49 | 213 | 1.0 | 3.0 | 0.01 | 0.08 | 0.01 | 78 | 1017.0 |
| 20260502021803 | 50 | 213 | 1.0 | 4.0 | 0.01 | 0.08 | 0.01 | 78 | 1017.0 |
| 20260502020903 | 50 | 212 | 2.0 | 4.0 | 0.01 | 0.08 | 0.01 | 78 | 1017.2 |
| 20260502020003 | 50 | 214 | 2.0 | 5.0 | 0.01 | 0.08 | 0.01 | 78 | 1017.3 |
| 20260502015403 | 50 | 214 | 2.0 | 5.0 | 0.01 | 0.08 | 0.01 | 78 | 1017.5 |
| 20260502014524 | 50 | 210 | 2.0 | 5.0 | 0.01 | 0.08 | 0.01 | 78 | 1017.5 |
| 20260502013603 | 50 | 214 | 3.0 | 6.0 | 0.01 | 0.08 | 0.01 | 78 | 1017.5 |
| 20260502012703 | 50 | 214 | 3.0 | 6.0 | 0.00 | 0.07 | 0.00 | 78 | 1017.7 |
| 20260502011803 | 50 | 201 | 2.0 | 5.0 | 0.00 | 0.07 | 0.00 | 78 | 1017.8 |
| 20260502010903 | 51 | 196 | 0.0 | 3.0 | 0.00 | 0.07 | 0.00 | 77 | 1017.8 |
| 20260502010003 | 51 | 196 | 0.0 | 2.0 | 0.00 | 0.07 | 0.00 | 77 | 1017.8 |
| 20260502005403 | 51 | 196 | 0.0 | 2.0 | 0.00 | 0.07 | 0.00 | 78 | 1017.9 |
| 20260502004503 | 51 | 184 | 2.0 | 6.0 | 0.00 | 0.07 | 0.00 | 78 | 1017.9 |
| 20260502003603 | 51 | 132 | 2.0 | 5.0 | 0.00 | 0.07 | 0.00 | 78 | 1018.0 |
| 20260502002703 | 51 | 128 | 2.0 | 5.0 | 0.00 | 0.07 | 0.00 | 78 | 1018.0 |
| 20260502001824 | 50 | 136 | 2.0 | 5.0 | 0.00 | 0.07 | 0.00 | 77 | 1018.1 |
| 20260502000924 | 50 | 176 | 2.0 | 5.0 | 0.00 | 0.07 | 0.00 | 77 | 1018.1 |
| 20260502000024 | 49 | 202 | 2.0 | 4.0 | 0.00 | 0.07 | 0.00 | 77 | 1018.1 |
| 20260501235403 | 49 | 212 | 2.0 | 4.0 | 0.00 | 0.07 | 0.00 | 77 | 1018.1 |
| 20260501234503 | 49 | 220 | 0.0 | 2.0 | 0.00 | 0.07 | 0.00 | 77 | 1017.9 |
| 20260501233624 | 49 | 360 | 0.0 | 1.0 | 0.00 | 0.07 | 0.00 | 77 | 1018.0 |
| 20260501232703 | 49 | 220 | 0.0 | 2.0 | 0.00 | 0.07 | 0.00 | 77 | 1018.2 |
| 20260501231824 | 50 | 0 | 0.0 | 0.0 | 0.00 | 0.07 | 0.00 | 76 | 1018.2 |
| 20260501230903 | 50 | 220 | 0.0 | 2.0 | 0.00 | 0.07 | 0.00 | 77 | 1018.3 |
| 20260501230004 | 50 | 0 | 0.0 | 0.0 | 0.00 | 0.07 | 0.00 | 76 | 1018.3 |
| 20260501225403 | 50 | 220 | 0.0 | 3.0 | 0.00 | 0.07 | 0.07 | 77 | 1018.3 |
| 20260501224503 | 50 | 221 | 0.0 | 3.0 | 0.00 | 0.07 | 0.07 | 77 | 1018.3 |
| 20260501223603 | 50 | 0 | 0.0 | 0.0 | 0.00 | 0.07 | 0.07 | 77 | 1018.4 |
| 20260501222703 | 50 | 0 | 0.0 | 0.0 | 0.00 | 0.07 | 0.07 | 77 | 1018.5 |
| 20260501221803 | 51 | 0 | 0.0 | 0.0 | 0.00 | 0.07 | 0.07 | 76 | 1018.5 |